Location: Newark
(52.3500°N, 175.9667°E)
Time: 12:31:07
(UTC+00:00)

ISS - Pass Details

Date: 09 March 2021
Orbit: 418 x 422 km, 51.6° (Epoch: 13 April)

Event Time Altitude Azimuth Distance (km) Brightness Sun altitude
Exits shadow 17:55:45 11° 255° (WSW) 1,470 -1.6 -8.0°
Maximum altitude 17:57:42 15° 218° (SW) 1,208 -1.8 -7.7°
Drops below altitude 10° 17:59:46 10° 180° (S) 1,493 -1.0 -7.4°
Sets 18:02:27 0° 157° (SSE) 2,353 0.3 -7.0°
